Aérodrome :
LOGIN :

S'inscrire | Disclaimer

   EN    FR    IT 

 










Légende :    VFR   VFR Marginal   IFR   IFR Intensif   IFR Très Intensif
Visi : 
Plafond : 
>= 8 km
>= 3000ft
5 à 8 km
1000 à 3000 ft
1500m à 5 km
500 à 1000 ft
800 à 1500m
200 à 500 ft
< 800m
< 200 ft
Symboles :   Orages  Brouillard  Fortes neiges  Fortes précipitations  Vent > 20 kt
SIGMETs :   Divers  Orages  Givrage  Turbulence  Onde Orograph.  Cendres Volcan.







- Altitude de l'aérodrome : 336 ft
- Code IATA : GCI
- Voir les cartes d'approche


EGJB - Guernsey

DERNIER METAR :
  • 210420Z 17013KT 9999 FEW010 14/12 Q1014

METARs EXPIRÉS :
  • 210350Z 18013KT 9999 SCT011 14/12 Q1014
  • 210320Z 18012KT 9999 SCT013 14/12 Q1014
  • 210250Z 19013KT 9999 FEW012 14/12 Q1015

TAF TAF EGJB
Valide du 21 à 03h jusqu'au 21 à 12h UTC


210202Z 2103/2112 17021KT 9999 FEW012
BECMG 2106/2109 BKN012
TEMPO 2109/2112 5000 RA BKN010
ATIS : +44 1481 238 957
Pas de NOTAMs connus pour ce terrain.



MET'MAP, la Météo Aéronautique d'un coup d'oeil ! - Copyright ORBIFLY Décembre 2007 - Disclaimer

ORBIFLY MET'MAP TEAM :

Programmation & Développement : Alexandra Zaïnal
Conception & Développement : Baudouin d'Aumeries
Co-Programmation & Développement : Marc-Olivier Méhu
Soutien technique & logistique : Manuel Goepfert

Contact : metmap@orbifly.com




SOURCES & CREDITS :

   NOAA